Find Starlink 36704

NORAD ID: 67697 Int'l Des: 2026-025 Owner: SPXS Country: US Constellation: starlink operational
LEOCIRCULARRETROGRADE

当前视图

正在加载3D地球...

关于 Starlink 36704

正在加载描述...

即将过境

Passes for default location (London). Set your location on the main map for personalized predictions.

高度历史

Loading altitude history...

两行轨道根数

1 67697U 26025E 26150.06649861 .00047454 00000-0 14629-2 0 9992
2 67697 97.2849 261.6058 0001720 92.3918 267.7521 15.33446591 18488
Epoch: May 30, 2026 • Age: 14 hours

当前状态

高度 470.0 km
速度 7.64 km/s
星下点 37.80°N, 130.52°E
发射日期 Feb 7, 2026
运行时间 0.3 years
类型 internet

技术详情

分类 Payload
质量 575.00 kg
干质量 530.00 kg
总质量 575.00 kg
长度 0.30 m
直径 4.10 m
跨度 29.00 m
形状 Box + pan
制造商 SPXS
平台类型 Starlink V2MO
阶段状态 In Orbit
所有者/国家 SPXS/US

Most Searched